CW4591 Weather Reports


Display with metric or nautical units.
time (UTC)temp
F
wind
direction
speed
MPH
gust
MPH
rain 1hr
in
rain 24hr
in
rain mn
in
humidity
%
barometer
mb
20200809114521 41 118 0.0 0.0 0.00 0.00 0.00 85 1005.2
20200809113010 41 118 0.0 1.0 0.00 0.00 0.00 85 1005.4
20200809111526 40 201 0.0 0.0 0.00 0.00 0.00 84 1005.5
20200809110010 40 202 0.0 0.0 0.00 0.00 0.00 84 1005.5
20200809104510 40 202 0.0 1.0 0.00 0.00 0.00 83 1005.5
20200809103016 41 202 0.0 0.0 0.00 0.00 0.00 83 1005.4
20200809101649 41 202 0.0 0.0 0.00 0.00 0.00 82 1005.4
20200809100159 42 202 0.0 0.0 0.00 0.00 0.00 81 1005.5
20200809094623 42 201 0.0 0.0 0.00 0.00 0.00 80 1005.6
20200809093216 43 202 0.0 4.0 0.00 0.00 0.00 79 1005.7
20200809091629 44 119 0.0 0.0 0.00 0.00 0.00 78 1005.7
20200809090210 45 119 0.0 0.0 0.00 0.00 0.00 76 1005.8
20200809084806 45 119 0.0 0.0 0.00 0.00 0.00 76 1005.7
20200809083131 46 119 0.0 0.0 0.00 0.00 0.00 75 1005.8
20200809081623 46 119 1.0 3.0 0.00 0.00 0.00 75 1005.8
20200809080046 47 156 0.0 0.0 0.00 0.00 0.00 73 1005.7
20200809074705 47 156 0.0 2.0 0.00 0.00 0.00 72 1005.6
20200809073140 48 60 0.0 0.0 0.00 0.00 0.00 72 1005.5
20200809071707 49 70 1.0 4.0 0.00 0.00 0.00 69 1005.3
20200809070058 50 268 0.0 0.0 0.00 0.00 0.00 67 1005.3
20200809064617 52 268 0.0 0.0 0.00 0.00 0.00 65 1005.2
20200809063040 54 268 0.0 1.0 0.00 0.00 0.00 61 1005.3
20200809061640 55 268 0.0 1.0 0.00 0.00 0.00 58 1005.2
20200809060055 57 268 0.0 0.0 0.00 0.00 0.00 55 1005.1
20200809054534 60 268 0.0 0.0 0.00 0.00 0.00 52 1005.0
20200809053105 61 268 0.0 1.0 0.00 0.00 0.00 51 1004.9
20200809051542 63 283 1.0 8.0 0.00 0.00 0.00 45 1005.0
20200809050140 64 221 2.0 7.0 0.00 0.00 0.00 41 1004.8
20200809044704 66 258 0.0 4.0 0.00 0.00 0.00 43 1004.8
20200809043044 66 336 2.0 7.0 0.00 0.00 0.00 41 1004.8
20200809041608 68 308 0.0 6.0 0.00 0.00 0.00 35 1004.8
20200809040130 68 278 3.0 7.0 0.00 0.00 0.00 35 1004.7
20200809034557 67 249 5.0 9.0 0.00 0.00 0.00 35 1004.5
20200809033124 66 359 1.0 7.0 0.00 0.00 0.00 43 1004.6
20200809031615 67 359 3.0 5.0 0.00 0.00 0.00 41 1004.7
20200809030039 68 359 3.0 8.0 0.00 0.00 0.00 39 1004.6
20200809024555 68 216 5.0 13.0 0.00 0.00 0.00 32 1004.5
20200809023037 69 235 4.0 10.0 0.00 0.00 0.00 34 1004.4
20200809021604 69 231 2.0 9.0 0.00 0.00 0.00 34 1004.5
20200809020048 69 248 2.0 11.0 0.00 0.00 0.00 34 1004.5
20200809014533 69 250 3.0 11.0 0.00 0.00 0.00 34 1004.6
20200809013053 69 265 7.0 14.0 0.00 0.00 0.00 35 1004.6
20200809011551 70 301 4.0 14.0 0.00 0.00 0.00 35 1004.7
20200809010035 69 162 3.0 9.0 0.00 0.00 0.00 37 1004.6
20200809004606 68 56 3.0 6.0 0.00 0.00 0.00 41 1004.8
20200809003028 66 83 0.0 5.0 0.00 0.00 0.00 43 1004.8
20200809001536 65 39 1.0 4.0 0.00 0.00 0.00 43 1004.9
20200809000028 65 274 1.0 7.0 0.00 0.00 0.00 45 1004.9
20200808234528 66 60 2.0 13.0 0.00 0.00 0.00 44 1004.9
20200808233026 64 331 4.0 7.0 0.00 0.00 0.00 47 1004.8
20200808231516 65 33 2.0 6.0 0.00 0.00 0.00 47 1004.9
20200808230026 64 43 1.0 5.0 0.00 0.00 0.00 48 1005.0
20200808224509 64 22 1.0 5.0 0.00 0.00 0.00 48 1005.0
20200808223023 64 28 1.0 6.0 0.00 0.00 0.00 49 1005.0
20200808221542 64 324 0.0 3.0 0.00 0.00 0.00 47 1005.0
20200808220011 65 343 1.0 8.0 0.00 0.00 0.00 45 1005.1
20200808214600 65 314 3.0 6.0 0.00 0.00 0.00 44 1005.0
20200808213015 65 245 1.0 5.0 0.00 0.00 0.00 43 1005.2
20200808211511 65 220 0.0 4.0 0.00 0.00 0.00 45 1005.3
20200808210005 64 260 4.0 7.0 0.00 0.00 0.00 47 1005.4
20200808204504 65 202 2.0 8.0 0.00 0.00 0.00 45 1005.4
20200808203003 64 216 2.0 9.0 0.00 0.00 0.00 48 1005.5
20200808201625 64 125 1.0 7.0 0.00 0.00 0.00 52 1005.5
20200808200154 62 293 2.0 6.0 0.00 0.00 0.00 54 1005.5
20200808194608 61 50 1.0 4.0 0.00 0.00 0.00 56 1005.5
20200808193057 61 319 1.0 6.0 0.00 0.00 0.00 57 1005.4
20200808191626 61 21 0.0 4.0 0.00 0.00 0.00 58 1005.4
20200808190152 61 327 2.0 6.0 0.00 0.00 0.00 56 1005.5
20200808184554 61 279 4.0 7.0 0.00 0.00 0.00 56 1005.5
20200808183119 60 282 0.0 5.0 0.00 0.00 0.00 58 1005.3
20200808181555 60 186 1.0 4.0 0.00 0.00 0.00 60 1005.4
20200808180226 59 305 1.0 4.0 0.00 0.00 0.00 62 1005.4
20200808174526 58 230 0.0 5.0 0.00 0.00 0.00 65 1005.3
20200808173053 58 339 0.0 6.0 0.00 0.00 0.00 65 1005.4
20200808171527 58 332 1.0 5.0 0.00 0.00 0.00 65 1005.1
20200808170050 57 295 0.0 4.0 0.00 0.00 0.00 68 1005.0
20200808164520 55 294 0.0 0.0 0.00 0.00 0.00 69 1004.8
20200808163013 55 295 0.0 2.0 0.00 0.00 0.00 72 1004.7
20200808161529 53 295 0.0 3.0 0.00 0.00 0.00 74 1004.5
20200808160052 52 295 0.0 3.0 0.00 0.00 0.00 77 1004.4
20200808153149 45 328 0.0 5.0 0.00 0.00 0.00 90 1004.0
20200808151602 42 333 1.0 3.0 0.00 0.00 0.00 93 1003.9
20200808150122 40 295 0.0 4.0 0.00 0.00 0.00 90 1003.8
20200808144637 39 277 1.0 4.0 0.00 0.00 0.00 89 1003.7
20200808143120 38 278 0.0 3.0 0.00 0.00 0.00 88 1003.6
20200808141625 38 268 0.0 0.0 0.00 0.00 0.00 87 1003.4
20200808140131 38 268 0.0 0.0 0.00 0.00 0.00 86 1003.3
20200808134612 38 268 0.0 1.0 0.00 0.00 0.00 85 1003.0
20200808133129 38 268 0.0 0.0 0.00 0.00 0.00 85 1002.8
20200808131647 38 268 0.0 0.0 0.00 0.00 0.00 85 1002.6
20200808130116 39 268 0.0 1.0 0.00 0.00 0.00 85 1002.4
20200808124613 39 268 0.0 2.0 0.00 0.00 0.00 84 1002.2
20200808123156 39 268 1.0 3.0 0.00 0.00 0.00 84 1002.1
20200808121601 39 268 1.0 4.0 0.00 0.00 0.00 84 1002.0
20200808120113 39 264 0.0 1.0 0.00 0.00 0.00 84 1001.9